Rochelle, IL

5:14 AM CDT on August 19, 2017 (GMT -0500)
Rochelle

Weather History for KRPJ - March, 2013

Change the Weather History Date:

Friday, March 1, 2013

  Actual Average (KRFD) Record (KRFD)
Temperature  
Mean Temperature 24 °F -  
Max Temperature 26 °F 39 °F 66 °F (1992)
Min Temperature 22 °F 22 °F -11 °F (1962)
Degree Days  
Heating Degree Days 41    
Moisture  
Dew Point 20 °F    
Average Humidity 84    
Maximum Humidity 91    
Minimum Humidity 76    
Precipitation  
Precipitation 0.00 in - - ()
Sea Level Pressure  
Sea Level Pressure 30.16 in    
Wind  
Wind Speed 13 mph (North)    
Max Wind Speed 21 mph    
Max Gust Speed 23 mph    
Visibility 8 miles    
Events Rain , Snow    
Averages and records for this station are not official NWS values.
T = Trace of Precipitation, MM = Missing Value Source: NWS Daily Summary

Daily Weather History Graph

Daily Weather History Graph

Search for Another Location

Airport or City:

Trip Planner

Search our weather history database for the weather conditions in past years. The results will help you decide how hot, cold, wet, or windy it might be!

Date:

Astronomy

Mar. 01, 2013 Rise Set
Actual Time 6:30 AM CST 5:46 PM CST
Civil Twilight 6:02 AM CST 6:14 PM CST
Nautical Twilight 5:30 AM CST 6:47 PM CST
Astronomical Twilight 4:58 AM CST 7:19 PM CST
Moon 10:25 PM CST (3/1) 8:12 AM CST (3/1)
Length of Visible Light 12h 11m
Length of Day
11h 16m
Waning Gibbous, 83% of the Moon is Illuminated
Mar 1
Waning Gibbous
Mar 4
Last Quarter
Mar 11
New
Mar 19
First Quarter
Mar 27
Full

Hourly Weather History & Observations

Time (CST) Temp. Windchill Dew Point Humidity Pressure Visibility Wind Dir Wind Speed Gust Speed Precip Events Conditions
12:15 AM 26.6 °F 18.2 °F 21.9 °F 82% 30.09 in 10.0 mi North 8.1 mph - N/A   Overcast
12:35 AM 26.2 °F 14.2 °F 21.4 °F 82% 30.09 in 10.0 mi NNE 15.0 mph - N/A   Overcast
1:15 AM 25.7 °F 14.6 °F 19.9 °F 79% 30.09 in 10.0 mi North 12.7 mph - N/A   Overcast
1:35 AM 25.3 °F 14.7 °F 20.1 °F 81% 30.09 in 10.0 mi North 11.5 mph - N/A   Overcast
1:55 AM 25.3 °F 15.3 °F 19.9 °F 80% 30.09 in 10.0 mi North 10.4 mph - N/A   Overcast
3:35 AM 24.6 °F 13.2 °F 20.3 °F 84% 30.08 in 10.0 mi North 12.7 mph - N/A   Light Freezing Rain
4:15 AM 24.6 °F 13.8 °F 21.2 °F 87% 30.08 in 10.0 mi North 11.5 mph - N/A   Light Freezing Rain
4:35 AM 24.3 °F 13.9 °F 21.2 °F 88% 30.09 in 10.0 mi North 10.4 mph - N/A   Light Freezing Rain
4:55 AM 24.4 °F 13.0 °F 21.2 °F 87% 30.09 in 10.0 mi North 12.7 mph - N/A   Overcast
5:15 AM 24.3 °F 12.2 °F 21.2 °F 88% 30.09 in 10.0 mi North 13.8 mph - N/A   Overcast
5:35 AM 24.3 °F 12.2 °F 21.2 °F 88% 30.10 in 10.0 mi North 13.8 mph - N/A   Overcast
6:15 AM 24.3 °F 13.3 °F 21.0 °F 87% 30.11 in 10.0 mi North 11.5 mph - N/A Snow Light Snow
6:35 AM 23.9 °F 12.3 °F 21.0 °F 89% 30.11 in 10.0 mi North 12.7 mph - N/A   Overcast
6:55 AM 23.9 °F 11.2 °F 21.0 °F 89% 30.12 in 7.0 mi North 15.0 mph - N/A   Overcast
7:15 AM 24.3 °F 12.2 °F 20.8 °F 87% 30.12 in 5.0 mi North 13.8 mph - N/A   Overcast
7:35 AM 24.3 °F 12.2 °F 20.8 °F 87% 30.13 in 4.0 mi North 13.8 mph - N/A Snow Light Snow
7:55 AM 23.9 °F 11.2 °F 20.8 °F 88% 30.13 in 4.0 mi NNE 15.0 mph - N/A Snow Light Snow
8:15 AM 24.3 °F 11.7 °F 21.0 °F 87% 30.14 in 3.0 mi North 15.0 mph 20.7 mph N/A Snow Light Snow
8:35 AM 24.4 °F 13.0 °F 21.2 °F 87% 30.14 in 5.0 mi North 12.7 mph - N/A Snow Light Snow
8:55 AM 24.8 °F 12.4 °F 21.2 °F 86% 30.14 in 10.0 mi North 15.0 mph - N/A Snow Light Snow
9:15 AM 25.2 °F 13.9 °F 21.2 °F 85% 30.14 in 10.0 mi North 12.7 mph 19.6 mph N/A   Overcast
9:35 AM 25.2 °F 12.4 °F 21.2 °F 85% 30.15 in 4.0 mi North 16.1 mph - N/A Snow Light Snow
9:55 AM 24.8 °F 11.9 °F 21.4 °F 87% 30.16 in 3.0 mi North 16.1 mph - N/A Snow Light Snow
10:15 AM 25.3 °F 13.6 °F 21.7 °F 86% 30.16 in 5.0 mi North 13.8 mph - N/A Snow Light Snow
10:35 AM 25.7 °F 12.7 °F 21.7 °F 85% 30.16 in 4.0 mi North 17.3 mph - N/A Snow Light Snow
11:15 AM 25.7 °F 13.1 °F 21.2 °F 83% 30.16 in 7.0 mi North 16.1 mph 21.9 mph N/A   Overcast
11:35 AM 26.1 °F 14.0 °F 21.6 °F 83% 30.17 in 5.0 mi North 15.0 mph - N/A Snow Light Snow
11:55 AM 25.7 °F 11.9 °F 21.6 °F 84% 30.16 in 4.0 mi North 19.6 mph - N/A   Overcast
12:15 PM 25.3 °F 12.2 °F 21.7 °F 86% 30.16 in 4.0 mi North 17.3 mph - N/A Rain Light Freezing Rain
12:35 PM 24.8 °F 11.5 °F 22.1 °F 89% 30.16 in 3.0 mi NNE 17.3 mph - N/A Rain Light Freezing Rain
12:55 PM 24.8 °F 11.9 °F 22.5 °F 91% 30.16 in 3.0 mi North 16.1 mph - N/A Rain Light Freezing Rain
1:15 PM 24.8 °F 12.4 °F 22.5 °F 91% 30.16 in 4.0 mi North 15.0 mph - N/A Rain Light Freezing Rain
1:35 PM 24.8 °F 11.9 °F 22.3 °F 90% 30.15 in 2.5 mi NNE 16.1 mph 19.6 mph N/A   Light Freezing Rain
1:55 PM 24.8 °F 12.4 °F 22.1 °F 89% 30.16 in 4.0 mi North 15.0 mph 20.7 mph N/A Rain Light Freezing Rain
2:15 PM 24.8 °F 11.5 °F 21.9 °F 89% 30.16 in 4.0 mi NNE 17.3 mph - N/A Rain Light Freezing Rain
2:35 PM 24.6 °F 12.2 °F 21.6 °F 88% 30.16 in 4.0 mi NNE 15.0 mph - N/A Rain Light Freezing Rain
2:55 PM 24.4 °F 9.9 °F 21.2 °F 87% 30.16 in 4.0 mi NNE 20.7 mph - N/A   Overcast
3:15 PM 24.1 °F 10.6 °F 20.7 °F 87% 30.17 in 5.0 mi NNE 17.3 mph 23.0 mph N/A   Overcast
3:35 PM 24.3 °F 12.2 °F 20.3 °F 85% 30.17 in 10.0 mi North 13.8 mph - N/A   Overcast
3:55 PM 24.3 °F 10.0 °F 19.9 °F 84% 30.18 in 10.0 mi NNE 19.6 mph - N/A   Overcast
4:15 PM 24.4 °F 13.5 °F 19.9 °F 83% 30.18 in 10.0 mi North 11.5 mph - N/A   Overcast
4:35 PM 24.3 °F 11.7 °F 18.9 °F 80% 30.19 in 10.0 mi North 15.0 mph - N/A   Overcast
4:55 PM 24.3 °F 11.2 °F 19.0 °F 80% 30.19 in 10.0 mi North 16.1 mph - N/A   Overcast
5:15 PM 24.3 °F 12.7 °F 19.2 °F 81% 30.19 in 10.0 mi North 12.7 mph - N/A   Overcast
5:35 PM 24.4 °F 12.4 °F 19.0 °F 80% 30.19 in 10.0 mi North 13.8 mph - N/A   Overcast
5:55 PM 24.3 °F 12.2 °F 19.2 °F 81% 30.20 in 10.0 mi North 13.8 mph 19.6 mph N/A   Overcast
6:15 PM 24.3 °F 13.3 °F 19.2 °F 81% 30.21 in 10.0 mi North 11.5 mph - N/A   Overcast
6:35 PM 24.3 °F 11.2 °F 19.2 °F 81% 30.21 in 10.0 mi North 16.1 mph - N/A   Overcast
6:55 PM 23.9 °F 12.9 °F 19.2 °F 82% 30.21 in 10.0 mi North 11.5 mph - N/A   Overcast
7:15 PM 23.9 °F 12.3 °F 19.4 °F 83% 30.21 in 10.0 mi North 12.7 mph - N/A   Overcast
7:35 PM 23.9 °F 11.7 °F 19.2 °F 82% 30.21 in 10.0 mi North 13.8 mph - N/A   Overcast
7:55 PM 23.9 °F 12.9 °F 19.0 °F 82% 30.21 in 10.0 mi North 11.5 mph - N/A   Overcast
8:15 PM 23.9 °F 11.7 °F 18.3 °F 79% 30.21 in 10.0 mi North 13.8 mph - N/A   Overcast
8:35 PM 23.9 °F 11.2 °F 18.5 °F 80% 30.22 in 10.0 mi North 15.0 mph - N/A   Overcast
8:55 PM 24.3 °F 11.7 °F 18.7 °F 79% 30.22 in 10.0 mi North 15.0 mph - N/A   Overcast
9:15 PM 24.8 °F 12.9 °F 18.3 °F 76% 30.21 in 10.0 mi North 13.8 mph 19.6 mph N/A   Overcast
9:55 PM 24.4 °F 11.5 °F 18.3 °F 78% 30.21 in 10.0 mi North 16.1 mph - N/A   Overcast
10:15 PM 23.9 °F 11.2 °F 17.6 °F 77% 30.21 in 10.0 mi North 15.0 mph - N/A   Overcast
10:35 PM 23.9 °F 11.2 °F 17.4 °F 76% 30.20 in 10.0 mi NNW 15.0 mph - N/A   Overcast
10:55 PM 23.2 °F 11.4 °F 16.9 °F 77% 30.21 in 10.0 mi NNW 12.7 mph - N/A   Overcast
11:15 PM 22.5 °F 11.1 °F 16.7 °F 79% 30.20 in 10.0 mi NNW 11.5 mph - N/A   Overcast
11:35 PM 22.3 °F 11.5 °F 16.7 °F 79% 30.20 in 10.0 mi NNW 10.4 mph - N/A   Overcast
11:55 PM 22.6 °F 10.7 °F 16.7 °F 78% 30.19 in 10.0 mi NNW 12.7 mph - N/A   Overcast